[[{"header":{"parameterUnit":"m.s-1","parameterCategory":1,"la1":30.2991,"la2":30.254,"lo1":-89.0895,"lo2":-89.0444,"dy":0.0017,"dx":0.0017,"nx":28,"ny":28,"refTime":"2025-03-19T21:00:00:Z","depth":0,"parameterNumber":2,"parameterNumberName":"U-component_of_WINDS"},"data":[0,0,0,0,0,0,0,0,0,0,0,0,0,0,0,0,0,0,0,0,0,0,0,0,0,0,0,0,0,0,0,0,0,0,0,0,0,0,0,0,0,0,0,0,0,0,0,0,0,0,0,0,0,0,0,0,0,0,6.8746,6.8747,0,6.8834,6.8835,6.8836,6.8754,6.8751,6.8748,6.8745,6.8832,6.8837,6.8843,0,0,0,0,0,0,0,0,0,0,0,0,0,6.8508,6.8513,6.8746,6.8747,6.8748,6.8833,6.8835,6.8836,6.8755,6.8751,6.8747,6.8743,6.883,6.8837,6.8843,0,0,0,0,0,0,0,0,0,0,0,0,0,6.8605,6.8515,6.8746,6.8718,6.8716,6.8833,6.8835,6.8836,6.8756,6.8751,6.8746,6.8742,6.8828,6.8836,6.8844,6.8991,0,0,6.8868,6.8872,0,0,0,0,0,0,0,0,6.86,6.8614,6.8721,6.872,6.8719,6.8778,6.8783,6.8888,6.8757,6.8741,6.8745,6.8739,6.8818,6.8826,6.8854,6.8995,6.8999,6.8869,6.8874,6.8878,6.888,0,0,0,0,0,0,0,6.8593,6.861,6.878,6.8723,6.8721,6.8701,6.871,6.8802,6.8806,6.8742,6.8736,6.8748,6.8816,6.8846,6.8855,6.9,6.8869,6.8876,6.8881,6.8884,6.9272,6.9277,0,0,0,0,0,0,6.859,6.8605,6.8778,6.8783,6.8646,6.871,6.8719,6.8764,6.8804,6.8806,6.8752,6.8744,6.8835,6.8846,6.8858,6.9035,6.8877,6.8885,6.889,6.9266,6.9273,6.9279,0,0,0,0,0,0,6.8585,6.8606,6.8774,6.8693,6.8712,6.8719,6.877,6.8768,6.8798,6.8812,6.8812,6.8782,6.8831,6.8846,6.896,6.9037,6.8889,6.8896,6.926,6.9268,6.9276,6.9391,0,0,0,0,0,0,6.8578,6.8605,6.866,6.8694,6.8717,6.8875,6.8775,6.8773,6.8812,6.8802,6.884,6.8842,6.8829,6.8948,6.8968,6.9046,6.8902,6.9253,6.9264,6.9273,6.938,6.9402,6.942,0,0,0,0,0,6.857,6.8688,6.8664,6.8685,6.8787,6.8879,6.8892,6.8876,6.8819,6.8875,6.8885,6.884,6.9026,6.8961,6.8982,6.9063,6.9248,6.9261,6.9272,6.9371,6.9397,6.942,0,0,0,0,0,0,6.866,6.8692,6.8665,6.8797,6.8837,6.8866,6.8936,6.8904,6.8959,6.8948,6.8924,6.8933,6.9054,6.907,6.8996,6.921,6.9128,6.9145,6.9195,6.922,6.924,6.9234,6.8909,0,0,0,0,0,6.8696,6.8769,6.8792,6.8906,6.8928,6.8929,6.8968,6.8953,6.8992,6.9008,6.9026,6.9065,6.9133,6.9177,6.924,6.9382,6.939,6.9449,6.9469,6.9486,6.9501,6.958,6.9607,6.9319,6.9319,6.9319,0,0,6.877,6.8796,6.8843,6.8925,6.8954,6.9031,6.8943,6.9027,6.9084,6.902,6.9129,6.9144,6.9187,6.9317,6.9374,6.9333,6.9582,6.9501,6.9514,6.9521,6.9596,6.9623,6.9647,6.9328,6.9326,6.9325,0,0,6.8943,6.897,6.9069,6.9101,6.9146,6.9147,6.9172,6.9207,6.9215,6.9324,6.928,6.9347,6.9462,6.9496,6.9528,6.9719,6.9681,6.974,6.9846,6.9923,6.9946,6.9966,7.0036,7.0061,6.9755,6.9756,6.9756,0,6.9028,6.9142,6.9124,6.9213,6.9251,6.92,6.9302,6.9333,6.9396,6.9424,6.9378,6.9525,6.955,6.9688,6.9735,6.9762,6.979,6.9735,6.9944,6.9964,6.9983,7.0049,7.0075,6.9763,6.9762,6.9761,6.976,0,6.9246,6.9326,6.9401,6.9466,6.9513,6.9608,6.9605,6.9655,6.9636,6.9642,6.9756,6.9785,6.9854,6.9886,6.9867,7.0022,6.9996,6.9948,6.9864,7.0018,7.008,7.0105,6.9773,6.977,6.9768,6.9766,0,0,6.9476,6.9533,6.9561,6.9592,6.964,6.9701,6.9795,6.9864,6.9908,6.9955,7.0033,7.0135,7.0092,7.0128,7.0114,7.0182,7.0335,7.0125,7.0126,7.0164,7.051,7.0547,7.0576,7.031,7.0315,7.0319,7.0507,0,6.9652,6.9815,6.9804,6.9958,7.0033,6.9987,7.0069,7.0108,7.0117,7.0182,7.0192,7.0265,7.0202,7.0224,7.029,7.0302,7.0404,7.0288,7.0383,7.0387,7.0374,7.0608,7.0646,7.0822,7.0531,7.0535,7.0538,0,6.9879,6.9936,7.0098,7.0139,7.017,7.0244,7.0308,7.0371,7.0415,7.0417,7.0461,7.0436,7.0531,7.0447,7.0579,7.0501,7.0539,7.0552,7.0558,7.0566,7.0472,7.0624,7.0878,7.0905,7.0576,7.0573,7.057,0,7.0033,7.015,7.0263,7.029,7.034,7.0393,7.0417,7.0456,7.05,7.0556,7.0585,7.0651,7.0688,7.074,7.0734,7.0673,7.087,7.0784,7.0875,7.0875,7.0917,7.0915,7.1182,7.0942,7.0941,7.0941,7.094,0,7.0231,7.0332,7.0333,7.0403,7.0516,7.0503,7.0615,7.0632,7.0668,7.0741,7.0705,7.0774,7.0762,7.0832,7.0828,7.0939,7.0955,7.096,7.0958,7.0964,7.0963,7.0988,7.0976,7.0948,7.0946,7.0945,7.0944,0,7.0421,7.0426,7.0546,7.0585,7.0597,7.0679,7.0712,7.0779,7.0786,7.0879,7.09,7.0912,7.0992,7.0992,7.1082,7.108,7.1217,7.12,7.1203,7.1199,7.1291,7.1283,7.1584,7.1623,7.1357,7.1359,7.1361,0,7.0548,7.0625,7.0673,7.072,7.0748,7.0823,7.0869,7.086,7.0908,7.0967,7.1027,7.1104,7.1165,7.1296,7.1313,7.1383,7.1368,7.1469,7.1378,7.1383,7.1371,7.1367,7.1375,7.1487,7.1489,7.1492,7.1494,0,7.0772,7.0772,7.0839,7.0909,7.0965,7.1018,7.1068,7.1108,7.1105,7.1162,7.1245,7.1293,7.1387,7.1465,7.1534,7.1557,7.1526,7.1523,7.1548,7.1554,7.1553,7.1557,7.1252,7.1516,7.1513,7.1512,7.1511,7.151,7.0935,7.1003,7.1049,7.1126,7.1163,7.1211,7.1277,7.1294,7.1363,7.144,7.1431,7.1524,7.1569,7.1658,7.1689,7.1761,7.1726,7.1762,7.1771,7.178,7.1791,7.1542,7.1774,7.1773,7.1772,7.1772,7.1771,0,7.1159,7.1187,7.1258,7.1331,7.1392,7.1359,7.1414,7.1467,7.1549,7.1595,7.1657,7.1754,7.183,7.1855,7.1929,7.1982,7.197,7.2002,7.1998,7.2005,7.1817,7.1789,7.2011,7.2011,7.2011,7.2011,7.2011,7.2011,7.1283,7.1397,7.1403,7.1536,7.1563,7.1654,7.1689,7.1734,7.177,7.188,7.1944,7.196,7.1998,7.2076,7.2145,7.215,7.2179,7.2218,7.2217,7.2042,7.2018,7.1995,7.1968,7.2224,7.2224,7.2399,7.24,7.2402]},{"header":{"parameterUnit":"m.s-1","parameterCategory":1,"la1":30.2991,"la2":30.254,"lo1":-89.0895,"lo2":-89.0444,"dy":0.0017,"dx":0.0017,"nx":28,"ny":28,"refTime":"2025-03-19T21:00:00:Z","depth":0,"parameterNumber":3,"parameterNumberName":"V-component_of_WINDS"},"data":[0,0,0,0,0,0,0,0,0,0,0,0,0,0,0,0,0,0,0,0,0,0,0,0,0,0,0,0,0,0,0,0,0,0,0,0,0,0,0,0,0,0,0,0,0,0,0,0,0,0,0,0,0,0,0,0,0,0,-7.5731,-7.5732,0,-7.5844,-7.5845,-7.5846,-7.5781,-7.5778,-7.5774,-7.5771,-7.5882,-7.5888,-7.5894,0,0,0,0,0,0,0,0,0,0,0,0,0,-7.5455,-7.5461,-7.5731,-7.5732,-7.5734,-7.5844,-7.5845,-7.5847,-7.5781,-7.5777,-7.5774,-7.577,-7.588,-7.5887,-7.5894,0,0,0,0,0,0,0,0,0,0,0,0,0,-7.5572,-7.5462,-7.573,-7.5714,-7.5714,-7.5843,-7.5845,-7.5847,-7.5782,-7.5777,-7.5773,-7.5768,-7.5878,-7.5886,-7.5895,-7.6045,0,0,-7.5922,-7.5926,0,0,0,0,0,0,0,0,-7.5566,-7.5582,-7.5715,-7.5716,-7.5716,-7.5793,-7.5788,-7.5913,-7.5783,-7.5756,-7.5771,-7.5766,-7.5856,-7.5866,-7.5898,-7.605,-7.6055,-7.5923,-7.5928,-7.5932,-7.5935,0,0,0,0,0,0,0,-7.5558,-7.5577,-7.5775,-7.5717,-7.5717,-7.57,-7.5712,-7.5812,-7.5831,-7.5758,-7.5754,-7.5768,-7.5855,-7.5889,-7.59,-7.6056,-7.5923,-7.593,-7.5936,-7.5939,-7.6339,-7.6344,0,0,0,0,0,0,-7.5551,-7.5571,-7.5772,-7.5779,-7.5628,-7.5709,-7.5722,-7.5773,-7.583,-7.5834,-7.5772,-7.5765,-7.5877,-7.589,-7.5904,-7.6084,-7.5932,-7.594,-7.5945,-7.6334,-7.634,-7.6346,0,0,0,0,0,0,-7.5546,-7.557,-7.5767,-7.5674,-7.5697,-7.5719,-7.5777,-7.5778,-7.5812,-7.5841,-7.5843,-7.5804,-7.5873,-7.5891,-7.6011,-7.6087,-7.5944,-7.5952,-7.6328,-7.6336,-7.6343,-7.6445,0,0,0,0,0,0,-7.5538,-7.5568,-7.5626,-7.5675,-7.5703,-7.5874,-7.5782,-7.5783,-7.5828,-7.582,-7.5871,-7.5875,-7.5871,-7.5998,-7.602,-7.6096,-7.5959,-7.6321,-7.6331,-7.6341,-7.6435,-7.6456,-7.6473,0,0,0,0,0,-7.5528,-7.5648,-7.5629,-7.5653,-7.5775,-7.5878,-7.5894,-7.5888,-7.5835,-7.5892,-7.5911,-7.5873,-7.6075,-7.6011,-7.6035,-7.6115,-7.6316,-7.6328,-7.634,-7.6427,-7.6452,-7.6473,0,0,0,0,0,0,-7.5604,-7.5654,-7.5633,-7.5773,-7.5823,-7.5867,-7.594,-7.5915,-7.5978,-7.5967,-7.5956,-7.5968,-7.6094,-7.6116,-7.6044,-7.6264,-7.6187,-7.6205,-7.6245,-7.6269,-7.6288,-7.6279,-7.5967,0,0,0,0,0,-7.5638,-7.5718,-7.5757,-7.5877,-7.5903,-7.5918,-7.5962,-7.5954,-7.6003,-7.6023,-7.605,-7.6099,-7.6173,-7.6222,-7.6292,-7.6439,-7.6449,-7.6506,-7.6525,-7.654,-7.6555,-7.6636,-7.6661,-7.6386,-7.6385,-7.6385,0,0,-7.5706,-7.5744,-7.5795,-7.5893,-7.593,-7.6013,-7.5935,-7.6025,-7.6087,-7.6036,-7.6152,-7.6174,-7.6227,-7.6362,-7.6422,-7.6384,-7.6634,-7.6556,-7.6568,-7.6574,-7.6651,-7.6677,-7.67,-7.6394,-7.6392,-7.6391,0,0,-7.5875,-7.5911,-7.6016,-7.6056,-7.6114,-7.6123,-7.6149,-7.6198,-7.6212,-7.6328,-7.6293,-7.6365,-7.6493,-7.6534,-7.6571,-7.6758,-7.6726,-7.6781,-7.688,-7.6959,-7.6981,-7.7,-7.7067,-7.7092,-7.6796,-7.6796,-7.6796,0,-7.5952,-7.6077,-7.6072,-7.6167,-7.6211,-7.6172,-7.6278,-7.6316,-7.6394,-7.6425,-7.6382,-7.6544,-7.6577,-7.6721,-7.6768,-7.6799,-7.6827,-7.6774,-7.6978,-7.6997,-7.7015,-7.708,-7.7105,-7.6803,-7.6802,-7.6801,-7.6801,0,-7.6171,-7.6258,-7.6335,-7.6414,-7.6468,-7.6567,-7.6577,-7.6631,-7.6619,-7.6633,-7.6753,-7.6792,-7.687,-7.6904,-7.6892,-7.7048,-7.7022,-7.698,-7.6902,-7.7048,-7.7108,-7.7133,-7.6812,-7.6809,-7.6808,-7.6806,0,0,-7.6387,-7.6465,-7.6493,-7.6529,-7.6592,-7.6659,-7.6758,-7.6837,-7.6884,-7.6939,-7.7021,-7.7133,-7.7094,-7.7137,-7.7129,-7.7198,-7.7346,-7.7147,-7.7148,-7.7183,-7.752,-7.7552,-7.7581,-7.7326,-7.733,-7.7334,-7.7516,0,-7.656,-7.6733,-7.6733,-7.6893,-7.6974,-7.694,-7.7026,-7.7074,-7.709,-7.7161,-7.7178,-7.7258,-7.7201,-7.7226,-7.7294,-7.7314,-7.7414,-7.7301,-7.7401,-7.7405,-7.7389,-7.7612,-7.7646,-7.7816,-7.754,-7.7544,-7.7546,0,-7.6783,-7.685,-7.7019,-7.7073,-7.7106,-7.7184,-7.7257,-7.7326,-7.7379,-7.7386,-7.7436,-7.7419,-7.7519,-7.744,-7.7577,-7.75,-7.7542,-7.7558,-7.7565,-7.7573,-7.7484,-7.7627,-7.7869,-7.7895,-7.7583,-7.758,-7.7578,0,-7.6925,-7.7056,-7.7175,-7.7207,-7.7272,-7.7328,-7.7357,-7.7407,-7.7455,-7.7519,-7.755,-7.7624,-7.7665,-7.7722,-7.7725,-7.7667,-7.7865,-7.7785,-7.7873,-7.7873,-7.7915,-7.7912,-7.8168,-7.7943,-7.7942,-7.7942,-7.7941,0,-7.7118,-7.7223,-7.724,-7.7313,-7.743,-7.7429,-7.7544,-7.7568,-7.7613,-7.769,-7.7664,-7.7736,-7.7737,-7.781,-7.7814,-7.7928,-7.7946,-7.7954,-7.7954,-7.7957,-7.7956,-7.7983,-7.7971,-7.7949,-7.7947,-7.7946,-7.7945,0,-7.7295,-7.7311,-7.7438,-7.7491,-7.7507,-7.7591,-7.7636,-7.7705,-7.772,-7.7818,-7.7841,-7.7864,-7.795,-7.796,-7.8059,-7.8061,-7.8199,-7.8186,-7.8182,-7.8179,-7.8267,-7.8259,-7.8549,-7.8587,-7.8337,-7.8339,-7.8341,0,-7.7417,-7.7497,-7.756,-7.7611,-7.7644,-7.7726,-7.7776,-7.7778,-7.7831,-7.7901,-7.7962,-7.8046,-7.8113,-7.8252,-7.8277,-7.8353,-7.8342,-7.8438,-7.8353,-7.8354,-7.8344,-7.8339,-7.8347,-7.8454,-7.8457,-7.8459,-7.8461,0,-7.7631,-7.7636,-7.771,-7.7789,-7.785,-7.7911,-7.7968,-7.8011,-7.802,-7.8081,-7.817,-7.8223,-7.8326,-7.841,-7.8486,-7.8514,-7.849,-7.8488,-7.8513,-7.8516,-7.851,-7.8515,-7.8227,-7.8481,-7.8479,-7.8478,-7.8476,-7.8476,-7.7785,-7.7855,-7.7912,-7.7996,-7.804,-7.8095,-7.8164,-7.8189,-7.8264,-7.835,-7.8346,-7.8444,-7.8498,-7.8598,-7.8633,-7.8709,-7.8677,-7.8712,-7.8721,-7.873,-7.8739,-7.8499,-7.8723,-7.8722,-7.8722,-7.8721,-7.8721,0,-7.7998,-7.8034,-7.8111,-7.8194,-7.8261,-7.8234,-7.8297,-7.8354,-7.8442,-7.8495,-7.8562,-7.8665,-7.8747,-7.8781,-7.8861,-7.8915,-7.8906,-7.8936,-7.8932,-7.8939,-7.8763,-7.8734,-7.8943,-7.8943,-7.8943,-7.8943,-7.8942,-7.8942,-7.8117,-7.8236,-7.8248,-7.8389,-7.8423,-7.8521,-7.8559,-7.861,-7.8653,-7.877,-7.8839,-7.8861,-7.8906,-7.899,-7.9064,-7.9071,-7.9102,-7.9137,-7.914,-7.8974,-7.8952,-7.893,-7.8903,-7.9144,-7.9144,-7.9311,-7.9312,-7.9313]}]]